Погода в Мугалжаре

Погода в Мугалжаре : погода сейчас, прогноз погоды и архив. Всё, что Вы хотите узнать о погоде в Мугалжаре!

Хотите узнать прогноз погоды в Мугалжаре? Тогда Вам сюда: Погода в Мугалжаре

Поиск расширенной информации на нашем сайте:

Другие новости

Новости СМИ2

Главная страница сайта

Новости сайта

02.10.2013

Напоминаем, что на нашем новом сайте вы можете получить высокодетализированные прогнозы погоды по пунктам России, СНГ и мира (включающие важные для авиации метеовеличины, такие как направление и скорость ветра, видимость, явления погоды, количество и форма облачности, нижняя и верхняя граница облачности), а также ознакомиться с разнообразными материалами по авиационной метеорологии и подборкой полезных ссылок на эту тему.

Сайт Метеоцентр.Азия посвящён разработке технологий оптимизации авиаметеорологического обслуживания, включая проектирование и перспективное создание нескольких автоматизированных авиаметеорологических систем:
- система выпуска высокодетальных прогностических карт явлений погоды для нижнего воздушного пространства по России и ближнему зарубежью;
- система верификации прогнозов TAF (выпускаемых синоптиками официальных АМСГ РФ и ближнего зарубежья) и AUTOTAF (выпускаемых сайтом Метеоцентр.Азия) - выявление ошибок, онлайн-сопоставление с фактической погодой METAR, автоматическое внесение коррективов в прогнозы при резком отклонении фактической погоды от прогноза, подсчёт оправдываемости прогнозов по элементам и в целом;
- система обработки, анализа и отображения авиаметеорологической информации для применения провайдерами метеорологической информации.

Рекомендуем: отзывы кровмаркет

Погода в Мугалжаре - сегодня

Время (UTC), дата Ветер
(°,м/с) 
Видим.   Явления Облачность Т
(°С)
Тd
(°С)
f(%) Тe
(°С)
Pmin
(гПа)
dP
(гПа)
Po
(мм)
O2
(г/м3)
Тmin Tmax R s Состояние
почвы
12 24.02.17 тихо ()   4000 м  слаб. ливневой снег  10/10 600 м кучево-дожд. 
[Cb cap]
-2 -5.9 75 -2  1010.1  -0.2  721  293           
15 24.02.17 тихо ()   20000 м  {ливн. осадки}  10/10 300 м 
[Ns]
-3.2 -7.1 74 -3  1010.8  0.5  721  295    -0.6     
18 24.02.17 230 (ЮЗ) 20000 м    10/10 300 м 
[Ns]
-3.8 -7.5 75 -6  1011.8  0.8  722  296    -0.6     
21 24.02.17 230 (ЮЗ) 20000 м    10/10 300 м 
[Ns]
-4.2 -7.6 77 -6  1012.1  0.3  722  296           
00 25.02.17 230 (ЮЗ) 20000 м    10/10 300 м 
[Ns]
-5.6 -9 77 -10  1012.8  0.3  722  298           
03 25.02.17 250 (З) 20000 м    10/10 300 м 
[Ns]
-4.2 -7.2 80 -6  1018.9  6.1  727  298        21  равномерный
мокрый или
старый снег
100% 
06 25.02.17 230 (ЮЗ) 20000 м    10/10 600 м 
[Sc]
-3 -6.1 79 -3  1020.6  1.9  728  297  -6         
09 25.02.17 250 (З) 20000 м    10/10 600 м 
[Sc]
-1.3 -4.6 78 -3  1021.1  1.3  729  295           
12 25.02.17 200 (Ю) 20000 м    10/10 600 м 
[Sc]
-1.4 -4.7 78 -6  1021.1  729  296           
15 25.02.17 200 (Ю) 20000 м    10/10 600 м 
[Sc]
-0.3 -3.3 80 -4  1020.1  -0.7  728  294    -0.1       
18 25.02.17 200 (Ю) 20000 м    10/10 600 м 
[Sc]
-1.1 -4 81 -6  1021.1  0.7  729  295    -0.1       
21 25.02.17 290 (З) 20000 м    10/10 600 м 
[Sc]
-2 -4.8 81 -7  1020.3  -0.8  728  296           
00 26.02.17 200 (Ю) 20000 м    10/10 600 м 
[Sc]
-0.8 -3.3 83 -6  1018.9  -1.3  727  294           
03 26.02.17 200 (Ю) 20000 м    10/10 600 м 
[Sc]
+1.9 -1.2 80 -2  1017.7  -0.5  727  291        20  равномерный
мокрый или
старый снег
100% 
06 26.02.17 200 (Ю) 20000 м    10/0 
[Sc]
+3.2 -0.6 76 -1  1015.9  -1.7  725  289  -2.4         
09 26.02.17 200 (Ю) 20000 м    9/0 средняя 
[Ac trans]
+4.2 -0.7 70 +1  1013.6  -2  724  287           
12 26.02.17 200 (Ю) 20000 м    ясно 
+4.8 -0.2 70 +1  1010.5  -2.7  722  286           
15 26.02.17 200 (Ю) 20000 м    ясно 
+2 -2.3 73 -2  1010.5  -0.5  722  289    +5.2       
18 26.02.17 340 (С) 20000 м    10/10 600 м 
[Sc]
-2.8 -5.8 80 -7  1013.6  2.1  723  295    +5.2       
21 26.02.17 340 (С) 10 км  слаб. снег  10/10 300 м 
[Ns]
-3 -5.4 83 -7  1016.7  2.9  725  296           
00 27.02.17 290 (З) 20000 м  {снег}  10/10 300 м 
[Ns]
-3 -5 86 -7  1018.7  1.9  727  297           
03 27.02.17 290 (З) 20000 м    10/10 600 м 
[Sc]
-6 -8.3 84 -11  1021.7  2.3  728  301      17  равномерный
мокрый или
старый снег
100% 
06 27.02.17 270 (З) 20000 м    10/10 600 м 
[Sc]
-5.8 -9.7 74 -8  1025.3  4.1  732  302  -6.4       
09 27.02.17 250 (З) 20000 м    10/10 600 м 
[Sc]
-4.8 -8.4 76 -7  1026.5  0.8  732  301           
12 27.02.17 250 (З) 20000 м    10/10 300 м 
[Sc]
-4.8 -9.2 71 -7  1027.5  0.8  733  301           
Время (UTC), дата Ветер
(°,м/с) 
Видим.   Явления Облачность Т
(°С)
Тd
(°С)
f(%) Тe
(°С)
Pmin
(гПа)
dP
(гПа)
Po
(мм)
O2
(г/м3)
Тmin Tmax R s Состояние
почвы

Для получения пояснительной информации подведите курсор к названию столбца.

ПОГОДА в Мугалжаре - архив

Всё, что Вы хотите узнать о погоде в Мугалжаре - удобно и подробно!

Выберите нужную дату (начиная с 1 января 2015* года) и нажмите кнопку "Найти".
Будут отображены архивные сводки погоды по пункту Мугалжар, начиная с указанной даты.


Отображать данные в формате CSV (для использования в таблицах Excel)


Внимание! Наш архив погоды предназначен исключительно для личного некоммерческого использования в познавательных целях. Если Вам необходимы официальные справки о состоянии погоды (для производственных, юридических, коммерческих и т.п. целей), обращайтесь в органы Росгидромета.

*Примечание: данная дата относится к архиву по метеостанциям СССР (Россия, СНГ, Балтия).
Архив по метеостанциям Зарубежной Европы и Азии (кроме Китая) хранится 10 дней, по другим регионам земного шара (Китай, Африка, Америка, Австралия, Океания) - 1 день.

Мугалжар - район местоположения метеостанции


Название, широта, долгота, высота метеостанции:
Мугалжар (Мугоджарская) 48.6°ш. 58.5°д. 398 м над ур. моря [Казахстан]

Дополнительная информация

В oтличие oт бoльшинства пoгoдных сайтoв мы публикуем пoдрoбную метеoинфoрмацию в детальнoм прoфессиoнальнoм фoрмате.

Характеристики температуры и влажнoсти вoздуха измеряются на высoте 2 м в тени вдали oт зданий и деревьев.
Скoрoсть ветра измеряется на высoте 10 м (на урoвне рoста челoвека скoрoсть ветра ниже в 1.5-2 раза). Если метеoстанция нахoдится в гoрoде или в лесу, тo скoрoсть ветра занижена на 2-4 м/с пo сравнению с oткрытым местoм. Скoрoсть ветра над акватoриями крупных рек и oзёр, а также на вершинах хoлмoв на 2-5 м/с выше, чем в oбычных услoвиях.
Атмoсфернoе давление в разных тoчках местнoсти мoжет значительнo oтличаться oт давления на метеoстанции, в зависимoсти oт услoвий рельефа (при пoдъёме на 10 м давление пoнижается примернo на 1 мм рт.ст.).